Groton, CT

10:51 PM EDT on August 18, 2017 (GMT -0400)
Groton-New London

Weather History for KGON - January, 2013

Change the Weather History Date:

Wednesday, January 16, 2013

  Actual Average Record
Temperature  
Mean Temperature 35 °F -  
Max Temperature 37 °F 35 °F 52 °F (1990)
Min Temperature 33 °F 16 °F -2 °F (2004)
Degree Days  
Heating Degree Days 30    
Moisture  
Dew Point 34 °F    
Average Humidity 98    
Maximum Humidity 100    
Minimum Humidity 81    
Precipitation  
Precipitation 0.17 in - - ()
Sea Level Pressure  
Sea Level Pressure 30.00 in    
Wind  
Wind Speed 7 mph (North)    
Max Wind Speed 10 mph    
Max Gust Speed 18 mph    
Visibility 3 miles    
Events Rain , Snow    
Averages and records for this station are not official NWS values.
T = Trace of Precipitation, MM = Missing Value Source: NWS Daily Summary

Daily Weather History Graph

Daily Weather History Graph

Search for Another Location

Airport or City:

Trip Planner

Search our weather history database for the weather conditions in past years. The results will help you decide how hot, cold, wet, or windy it might be!

Date:

Astronomy

Jan. 16, 2013 Rise Set
Actual Time 7:11 AM EST 4:45 PM EST
Civil Twilight 6:40 AM EST 5:15 PM EST
Nautical Twilight 6:06 AM EST 5:49 PM EST
Astronomical Twilight 5:33 AM EST 6:22 PM EST
Moon 9:42 AM EST (1/16) 10:38 PM EST (1/16)
Length of Visible Light 10h 34m
Length of Day
9h 34m
Waxing Crescent, 28% of the Moon is Illuminated
Jan 16
Waxing Crescent
Jan 18
First Quarter
Jan 26
Full
Feb 3
Last Quarter
Feb 10
New

Hourly Weather History & Observations

Time (EST) Temp. Windchill Dew Point Humidity Pressure Visibility Wind Dir Wind Speed Gust Speed Precip Events Conditions
12:35 AM 35.6 °F 29.2 °F 30.2 °F 81% 30.23 in 2.0 mi NNE 8.1 mph - 0.00 in Snow Light Snow
12:56 AM 34.0 °F 28.0 °F 30.9 °F 89% 30.22 in 3.0 mi North 6.9 mph - 0.00 in Snow Light Snow
1:35 AM 33.8 °F 29.6 °F 30.2 °F 87% 30.23 in 2.0 mi NNE 4.6 mph - 0.00 in Snow Light Snow
1:51 AM 33.8 °F 30.8 °F 32.0 °F 93% 30.22 in 1.5 mi NE 3.5 mph - 0.00 in Snow Light Snow
1:56 AM 33.1 °F 28.7 °F 32.0 °F 96% 30.21 in 1.5 mi NE 4.6 mph - 0.00 in Snow Light Snow
2:29 AM 33.8 °F 28.6 °F 33.8 °F 100% 30.20 in 3.0 mi NE 5.8 mph - 0.00 in Snow Light Snow
2:56 AM 33.8 °F 27.0 °F 33.8 °F 100% 30.17 in 4.0 mi NNE 8.1 mph - N/A Rain Light Rain
3:56 AM 33.1 °F 27.7 °F 33.1 °F 100% 30.15 in 3.0 mi North 5.8 mph - 0.01 in Snow Light Snow
4:19 AM 33.8 °F 27.7 °F 33.8 °F 100% 30.14 in 2.0 mi North 6.9 mph - 0.00 in Snow Light Snow
4:24 AM 33.8 °F 28.6 °F 33.8 °F 100% 30.14 in 1.5 mi North 5.8 mph - 0.00 in Snow Light Snow
4:56 AM 33.1 °F 25.5 °F 33.1 °F 100% 30.11 in 1.0 mi NNE 9.2 mph - 0.04 in Snow Light Snow
5:06 AM 33.8 °F 27.0 °F 33.8 °F 100% 30.10 in 1.5 mi NNE 8.1 mph - 0.01 in Snow Light Snow
5:33 AM 33.8 °F 26.4 °F 33.8 °F 100% 30.09 in 2.5 mi NNE 9.2 mph - 0.04 in Snow Light Snow
5:41 AM 33.8 °F 27.0 °F 33.8 °F 100% 30.10 in 3.0 mi North 8.1 mph - 0.04 in Snow Light Snow
5:56 AM 33.1 °F 26.1 °F 33.1 °F 100% 30.09 in 1.8 mi NNE 8.1 mph - 0.05 in Snow Light Snow
6:07 AM 33.8 °F 27.7 °F 33.8 °F 100% 30.10 in 1.2 mi NNE 6.9 mph - 0.01 in Snow Light Snow
6:46 AM 33.8 °F 28.6 °F 33.8 °F 100% 30.08 in 1.8 mi NNE 5.8 mph - 0.06 in Snow Light Snow
6:51 AM 33.8 °F 29.6 °F 33.8 °F 100% 30.08 in 3.0 mi NNE 4.6 mph - 0.06 in Rain Light Rain
6:56 AM 33.1 °F 26.9 °F 33.1 °F 100% 30.07 in 3.0 mi NE 6.9 mph - 0.07 in Rain Rain
7:56 AM 34.0 °F 28.8 °F 34.0 °F 100% 30.06 in 4.0 mi NNE 5.8 mph - 0.00 in Rain Light Rain
8:56 AM 34.0 °F 28.0 °F 34.0 °F 100% 30.04 in 6.0 mi NNE 6.9 mph - 0.00 in Rain Light Rain
9:18 AM 35.6 °F 29.9 °F 35.6 °F 100% 30.01 in 4.0 mi NNE 6.9 mph - 0.00 in Rain Light Rain
9:56 AM 35.1 °F 28.6 °F 35.1 °F 100% 29.95 in 3.0 mi NE 8.1 mph - 0.00 in   Overcast
10:56 AM 36.0 °F 33.3 °F 36.0 °F 100% 29.93 in 6.0 mi ENE 3.5 mph - N/A   Overcast
11:56 AM 36.0 °F 32.1 °F 36.0 °F 100% 29.91 in 3.0 mi NNE 4.6 mph - 0.00 in Rain Light Rain
12:56 PM 35.1 °F 28.6 °F 35.1 °F 100% 29.89 in 4.0 mi North 8.1 mph - 0.00 in Rain Light Rain
1:56 PM 35.1 °F 31.0 °F 35.1 °F 100% 29.82 in 5.0 mi Variable 4.6 mph - 0.00 in   Overcast
2:56 PM 35.1 °F 27.4 °F 35.1 °F 100% 29.81 in 4.0 mi NNW 10.4 mph - N/A   Overcast
3:29 PM 35.6 °F 28.0 °F 35.6 °F 100% 29.86 in 2.5 mi NNW 10.4 mph 18.4 mph N/A   Overcast
3:38 PM 35.6 °F 28.0 °F 35.6 °F 100% 29.86 in 1.2 mi NNW 10.4 mph 18.4 mph N/A   Overcast
3:50 PM 35.6 °F 28.0 °F 35.6 °F 100% 29.85 in 0.8 mi NNW 10.4 mph 18.4 mph N/A   Overcast
3:51 PM 35.1 °F 29.3 °F 35.1 °F 100% 29.86 in 0.8 mi NNW 6.9 mph - N/A   Overcast
4:19 PM 33.8 °F 30.8 °F 33.8 °F 100% 29.86 in 1.0 mi North 3.5 mph - N/A   Overcast
4:42 PM 35.6 °F 30.7 °F 35.6 °F 100% 29.86 in 3.0 mi NNW 5.8 mph - N/A   Overcast
4:56 PM 35.1 °F 30.1 °F 35.1 °F 100% 29.86 in 3.0 mi North 5.8 mph - N/A   Overcast
5:08 PM 35.6 °F 28.6 °F 35.6 °F 100% 29.86 in 3.0 mi NNW 9.2 mph - N/A   Overcast
5:56 PM 35.1 °F 32.2 °F 35.1 °F 100% 29.86 in 4.0 mi NNW 3.5 mph - N/A   Overcast
6:56 PM 35.1 °F 32.2 °F 35.1 °F 100% 29.88 in 6.0 mi WSW 3.5 mph - N/A   Overcast
7:56 PM 36.0 °F 32.1 °F 36.0 °F 100% 29.86 in 7.0 mi WSW 4.6 mph - N/A   Overcast
8:56 PM 36.0 °F 32.1 °F 36.0 °F 100% 29.88 in 7.0 mi West 4.6 mph - N/A   Overcast
9:56 PM 37.0 °F 31.6 °F 36.0 °F 96% 29.87 in 7.0 mi West 6.9 mph - N/A   Mostly Cloudy
10:56 PM 37.0 °F 31.0 °F 35.1 °F 93% 29.88 in 7.0 mi WNW 8.1 mph - N/A   Overcast
11:56 PM 36.0 °F 30.3 °F 34.0 °F 93% 29.88 in 7.0 mi West 6.9 mph - N/A   Partly Cloudy